Location: Holiday Acres Laynes 2 Mobile Home Park
(26.7249°N, 81.8671°W)
Time: 07:36:48
(UTC+00:00)

GPS 2-15 Rocket1 - Pass Details

Date: 25 November 2020
Orbit: 624 x 675 km, 19.8° (Epoch: 21 January)

Event Time Altitude Azimuth Distance (km) Brightness Sun altitude
Rises 23:34:13 0° 257° (WSW) 3,001 8.6 -13.4°
Reaches altitude 10° 23:36:46 10° 249° (WSW) 2,083 7.2 -13.9°
Maximum altitude 23:41:15 35° 184° (S) 1,057 4.4 -14.9°
Enters shadow 23:44:56 14° 122° (ESE) 1,812 5.1 -15.7°
